Location: San Martino di Castrozza
(46.2667°N, 11.8000°E)
Time: 08:11:39
(UTC+00:00)

Cosmos 1378 Rocket - Pass Details

Date: 23 April 2021
Orbit: 600 x 628 km, 82.5° (Epoch: 07 May)

Event Time Altitude Azimuth Distance (km) Brightness Sun altitude
Exits shadow 03:14:50 - 209° (SSW) 2,074 5.7 -9.8°
Reaches altitude 10° 03:15:04 10° 210° (SSW) 1,986 5.6 -9.8°
Maximum altitude 03:19:17 45° 283° (WNW) 844 3.9 -9.1°
Drops below altitude 10° 03:23:31 10° 357° (N) 1,985 6.5 -8.5°
Sets 03:25:50 0° 4° (N) 2,890 7.5 -8.2°
